TimeCDT,TemperatureF,Dew PointF,Humidity,Sea Level PressureIn,VisibilityMPH,Wind Direction,Wind SpeedMPH,Gust SpeedMPH,PrecipitationIn,Events,Conditions,WindDirDegrees,DateUTC
12:15 AM,26.6,23.0,86,30.21,10.0,SSE,6.9,-,N/A,,Mostly Cloudy,150,2012-10-12 05:15:00
12:35 AM,28.4,23.0,80,30.19,10.0,SSE,5.8,-,N/A,,Overcast,150,2012-10-12 05:35:00
1:15 AM,32.0,23.0,69,30.16,10.0,SSE,9.2,-,N/A,,Overcast,160,2012-10-12 06:15:00
1:35 AM,33.8,24.8,70,30.15,10.0,South,10.4,17.3,N/A,,Overcast,170,2012-10-12 06:35:00
1:55 AM,33.8,24.8,70,30.12,10.0,South,13.8,19.6,N/A,,Overcast,170,2012-10-12 06:55:00
2:15 AM,35.6,24.8,65,30.10,10.0,South,20.7,26.5,N/A,,Overcast,170,2012-10-12 07:15:00
2:35 AM,35.6,24.8,65,30.11,10.0,South,16.1,-,N/A,,Overcast,170,2012-10-12 07:35:00
2:55 AM,35.6,24.8,65,30.11,10.0,South,13.8,-,N/A,,Mostly Cloudy,170,2012-10-12 07:55:00
3:15 AM,33.8,24.8,70,30.10,10.0,SSE,10.4,-,N/A,,Partly Cloudy,160,2012-10-12 08:15:00
3:35 AM,33.8,24.8,70,30.08,10.0,SSE,11.5,-,N/A,,Unknown,160,2012-10-12 08:35:00
3:55 AM,32.0,24.8,75,30.07,10.0,SSE,10.4,-,N/A,,Unknown,160,2012-10-12 08:55:00
4:15 AM,32.0,24.8,75,30.06,10.0,SSE,9.2,-,N/A,,Clear,160,2012-10-12 09:15:00
4:35 AM,32.0,24.8,75,30.04,10.0,South,9.2,-,N/A,,Clear,170,2012-10-12 09:35:00
4:55 AM,32.0,24.8,75,30.03,10.0,SSE,9.2,-,N/A,,Clear,160,2012-10-12 09:55:00
5:15 AM,32.0,24.8,75,30.03,10.0,South,9.2,-,N/A,,Clear,170,2012-10-12 10:15:00
5:55 AM,32.0,26.6,80,30.00,10.0,South,11.5,-,N/A,,Clear,180,2012-10-12 10:55:00
6:15 AM,32.0,26.6,80,29.98,10.0,South,13.8,-,N/A,,Clear,180,2012-10-12 11:15:00
6:35 AM,32.0,26.6,80,29.98,10.0,South,10.4,17.3,N/A,,Clear,180,2012-10-12 11:35:00
6:55 AM,32.0,26.6,80,29.96,10.0,South,13.8,17.3,N/A,,Clear,170,2012-10-12 11:55:00
7:15 AM,32.0,26.6,80,29.94,10.0,South,13.8,17.3,N/A,,Clear,180,2012-10-12 12:15:00
7:35 AM,33.8,26.6,75,29.93,10.0,South,12.7,18.4,N/A,,Clear,190,2012-10-12 12:35:00
7:55 AM,33.8,28.4,81,29.91,10.0,South,18.4,24.2,N/A,,Clear,190,2012-10-12 12:55:00
8:15 AM,33.8,28.4,81,29.90,10.0,South,18.4,24.2,N/A,,Clear,190,2012-10-12 13:15:00
8:35 AM,33.8,28.4,81,29.90,10.0,South,18.4,26.5,N/A,,Clear,190,2012-10-12 13:35:00
8:55 AM,35.6,28.4,75,29.89,10.0,South,18.4,24.2,N/A,,Clear,190,2012-10-12 13:55:00
9:15 AM,35.6,28.4,75,29.89,10.0,South,17.3,25.3,N/A,,Clear,190,2012-10-12 14:15:00
9:35 AM,37.4,28.4,70,29.88,10.0,South,16.1,23.0,N/A,,Clear,190,2012-10-12 14:35:00
9:55 AM,39.2,30.2,70,29.88,10.0,South,17.3,24.2,N/A,,Clear,190,2012-10-12 14:55:00
10:15 AM,39.2,30.2,70,29.86,10.0,South,23.0,27.6,N/A,,Clear,190,2012-10-12 15:15:00
10:35 AM,41.0,30.2,65,29.85,10.0,South,19.6,31.1,N/A,,Clear,190,2012-10-12 15:35:00
11:15 AM,44.6,32.0,61,29.84,10.0,SSW,23.0,-,N/A,,Clear,200,2012-10-12 16:15:00
11:35 AM,46.4,32.0,57,29.83,10.0,SSW,21.9,28.8,N/A,,Clear,210,2012-10-12 16:35:00
11:55 AM,48.2,32.0,54,29.82,10.0,South,18.4,23.0,N/A,,Clear,190,2012-10-12 16:55:00
12:15 PM,48.2,32.0,54,29.81,10.0,South,18.4,23.0,N/A,,Clear,190,2012-10-12 17:15:00
12:35 PM,50.0,32.0,50,29.80,10.0,SSW,16.1,21.9,N/A,,Clear,200,2012-10-12 17:35:00
12:55 PM,50.0,32.0,50,29.78,10.0,South,17.3,21.9,N/A,,Clear,190,2012-10-12 17:55:00
1:55 PM,53.6,32.0,44,29.75,10.0,SSW,17.3,20.7,N/A,,Clear,210,2012-10-12 18:55:00
2:15 PM,55.4,32.0,41,29.74,10.0,SSW,16.1,21.9,N/A,,Clear,210,2012-10-12 19:15:00
2:55 PM,57.2,32.0,38,29.71,10.0,SSW,15.0,23.0,N/A,,Clear,210,2012-10-12 19:55:00
3:15 PM,57.2,32.0,38,29.71,10.0,SSW,12.7,-,N/A,,Clear,200,2012-10-12 20:15:00
3:35 PM,57.2,32.0,38,29.70,10.0,SSW,12.7,19.6,N/A,,Clear,200,2012-10-12 20:35:00
3:55 PM,59.0,32.0,36,29.70,10.0,SSW,11.5,-,N/A,,Clear,200,2012-10-12 20:55:00
4:15 PM,59.0,32.0,36,29.69,10.0,SSW,13.8,-,N/A,,Clear,200,2012-10-12 21:15:00
4:35 PM,59.0,32.0,36,29.68,10.0,SSW,11.5,-,N/A,,Clear,200,2012-10-12 21:35:00
5:15 PM,59.0,32.0,36,29.67,10.0,SSW,11.5,-,N/A,,Clear,200,2012-10-12 22:15:00
5:55 PM,59.0,33.8,39,29.66,10.0,SSW,11.5,-,N/A,,Clear,210,2012-10-12 22:55:00
6:15 PM,57.2,33.8,41,29.65,10.0,SW,10.4,-,N/A,,Clear,220,2012-10-12 23:15:00
6:35 PM,55.4,33.8,44,29.65,10.0,SSW,4.6,-,N/A,,Clear,200,2012-10-12 23:35:00
6:55 PM,53.6,33.8,47,29.64,10.0,South,6.9,-,N/A,,Clear,190,2012-10-12 23:55:00
7:15 PM,48.2,32.0,54,29.64,10.0,South,5.8,-,N/A,,Clear,190,2012-10-13 00:15:00
7:35 PM,44.6,32.0,61,29.64,10.0,SE,5.8,-,N/A,,Clear,130,2012-10-13 00:35:00
7:55 PM,39.2,32.0,75,29.64,10.0,SE,8.1,-,N/A,,Clear,140,2012-10-13 00:55:00
8:15 PM,41.0,32.0,70,29.64,10.0,South,8.1,-,N/A,,Clear,180,2012-10-13 01:15:00
8:35 PM,39.2,32.0,75,29.63,10.0,SSE,6.9,-,N/A,,Clear,160,2012-10-13 01:35:00
9:15 PM,41.0,32.0,70,29.62,10.0,SSW,9.2,-,N/A,,Clear,200,2012-10-13 02:15:00
9:35 PM,39.2,32.0,75,29.62,10.0,SSW,8.1,-,N/A,,Clear,210,2012-10-13 02:35:00
9:55 PM,39.2,32.0,75,29.62,10.0,SSW,5.8,-,N/A,,Clear,210,2012-10-13 02:55:00
10:15 PM,39.2,32.0,75,29.62,10.0,SSW,6.9,-,N/A,,Clear,200,2012-10-13 03:15:00